User: anonymous   Login
Location: Maiden
(35.5760°N, 81.2120°W)
Time: 15:12:26
(UTC-04:00)
Language:

Cosmos 2151 - Orbit

View from above orbital plane
View from above orbital plane
View from above satellite
View from above satellite

Ground track
Ground track

The orbit data is extracted from the following two-line orbital elements,

1 21422U 91042A   14295.78811490  .00002521  00000-0  25607-3 0   473
2 21422 082.5007 087.3431 0013301 286.7159 073.2599 14.90398917264162
Epoch (UTC): 22 October 2014 18:54:53
Eccentricity: 0.0013301
inclination: 82.5007°
perigee height: 587 km
apogee height: 606 km
right ascension of ascending node: 87.3431°
argument of perigee: 286.7159°
revolutions per day: 14.90398917
mean anomaly at epoch: 73.2599°
orbit number at epoch: 26416

The dashed part of the orbit path shows where the satellite is in the earth's shadow,  

DLR